This is the latest recevied weather packets stored in our database for station/object ZP4MNB-13. If no packets are shown the sender has not sent any weather packets the latest 10 day(s).
| Time | Temp. | Humidity | Pressure | Rain* | Wind** | Luminosity | Snow |
|---|---|---|---|---|---|---|---|
| 1787421717 | 25° C | 46% | 1018.8 hPa | 0 mm | - | 247 W/m² | - |
| 1787421597 | 25° C | 45% | 1018.9 hPa | 0 mm | - | 230 W/m² | - |
| 1787421059 | 25° C | 46% | 1018.9 hPa | 0 mm | - | 258 W/m² | - |
| 1787420995 | 25° C | 47% | 1018.9 hPa | 0 mm | - | 254 W/m² | - |
| 1787420518 | 25° C | 47% | 1019 hPa | 0 mm | - | 252 W/m² | - |
| 1787420399 | 25° C | 49% | 1018.9 hPa | 0 mm | - | 270 W/m² | - |
| 1787419920 | 24.44° C | 47% | 1019.2 hPa | 0 mm | - | 268 W/m² | - |
| 1787419800 | 24.44° C | 47% | 1019.2 hPa | 0 mm | - | 272 W/m² | - |
| 1787419259 | 24.44° C | 48% | 1019.4 hPa | 0 mm | - | 291 W/m² | - |
| 1787419195 | 24.44° C | 49% | 1019.4 hPa | 0 mm | - | 295 W/m² | - |
| 1787418719 | 24.44° C | 50% | 1019.4 hPa | 0 mm | - | 298 W/m² | - |
| 1787418599 | 23.89° C | 51% | 1019.4 hPa | 0 mm | - | 302 W/m² | - |
| 1787418059 | 23.89° C | 51% | 1019.7 hPa | 0 mm | - | 306 W/m² | - |
| 1787417995 | 23.89° C | 52% | 1019.8 hPa | 0 mm | - | 310 W/m² | - |
| 1787417518 | 23.89° C | 54% | 1019.9 hPa | 0 mm | - | 312 W/m² | - |
| 1787417398 | 23.89° C | 51% | 1019.7 hPa | 0 mm | - | 316 W/m² | - |
| 1787416859 | 23.89° C | 54% | 1019.8 hPa | 0 mm | - | 319 W/m² | - |
| 1787416795 | 23.89° C | 55% | 1019.9 hPa | 0 mm | - | 305 W/m² | - |
| 1787416318 | 23.33° C | 55% | 1020.1 hPa | 0 mm | - | 323 W/m² | - |
| 1787416198 | 23.33° C | 55% | 1020.2 hPa | 0 mm | - | 325 W/m² | - |
| 1787415659 | 23.33° C | 55% | 1113.7 hPa | 0 mm | - | 327 W/m² | - |
| 1787415595 | 23.33° C | 56% | 1020.4 hPa | 0 mm | - | 282 W/m² | - |
| 1787415118 | 23.33° C | 56% | 1020.5 hPa | 0 mm | - | 331 W/m² | - |
| 1787414998 | 23.33° C | 58% | 1020.6 hPa | 0 mm | - | 332 W/m² | - |
| 1787414520 | 22.78° C | 56% | 1020.8 hPa | 0 mm | - | 333 W/m² | - |
* Rain latest hour (hover to see other rain measurements)
** Current wind speed in m/s (hover to see current wind gust speed)